TimeEDT,TemperatureF,Dew PointF,Humidity,Sea Level PressureIn,VisibilityMPH,Wind Direction,Wind SpeedMPH,Gust SpeedMPH,PrecipitationIn,Events,Conditions,WindDirDegrees,DateUTC
12:53 AM,70.0,64.9,84,30.00,-9999.0,Calm,Calm,-,N/A,,Unknown,0,2013-04-19 04:53:00
1:53 AM,68.0,64.0,87,29.98,-9999.0,Calm,Calm,-,N/A,,Unknown,0,2013-04-19 05:53:00
2:53 AM,66.9,64.0,90,29.95,-9999.0,Calm,Calm,-,N/A,,Unknown,0,2013-04-19 06:53:00
3:53 AM,68.0,64.0,87,29.94,-9999.0,Calm,Calm,-,N/A,,Unknown,0,2013-04-19 07:53:00
4:53 AM,71.1,66.0,84,29.95,-9999.0,SSE,5.8,-,N/A,,Unknown,160,2013-04-19 08:53:00
5:53 AM,70.0,66.0,87,29.96,-9999.0,SSE,5.8,-,N/A,,Unknown,160,2013-04-19 09:53:00
6:53 AM,70.0,66.9,90,29.97,-9999.0,SSE,4.6,-,N/A,,Unknown,150,2013-04-19 10:53:00
7:53 AM,72.0,68.0,87,29.98,-9999.0,Variable,4.6,-,N/A,,Unknown,0,2013-04-19 11:53:00
8:53 AM,75.9,70.0,82,29.98,-9999.0,SSE,11.5,16.1,N/A,,Unknown,160,2013-04-19 12:53:00
9:53 AM,80.1,71.1,74,29.98,-9999.0,South,16.1,21.9,N/A,,Unknown,180,2013-04-19 13:53:00
10:53 AM,82.9,70.0,65,30.00,-9999.0,South,19.6,25.3,N/A,,Unknown,180,2013-04-19 14:53:00
11:53 AM,82.9,71.1,67,30.00,-9999.0,South,23.0,33.4,N/A,,Unknown,190,2013-04-19 15:53:00
12:53 PM,84.0,71.1,65,29.97,-9999.0,SSW,17.3,31.1,N/A,,Unknown,200,2013-04-19 16:53:00
1:53 PM,84.0,71.1,65,29.96,-9999.0,South,20.7,27.6,N/A,,Unknown,190,2013-04-19 17:53:00
2:53 PM,82.9,72.0,69,29.94,-9999.0,SSW,20.7,29.9,N/A,,Unknown,210,2013-04-19 18:53:00
3:53 PM,81.0,71.1,72,29.92,-9999.0,SW,19.6,29.9,N/A,,Unknown,220,2013-04-19 19:53:00
4:53 PM,82.9,72.0,69,29.92,-9999.0,SSW,19.6,28.8,N/A,,Unknown,210,2013-04-19 20:53:00
5:53 PM,81.0,72.0,74,29.92,-9999.0,SW,12.7,20.7,N/A,,Unknown,220,2013-04-19 21:53:00
6:53 PM,79.0,72.0,79,29.92,-9999.0,SSW,12.7,20.7,N/A,,Unknown,210,2013-04-19 22:53:00
7:53 PM,78.1,72.0,81,29.93,-9999.0,SW,8.1,-,N/A,,Unknown,220,2013-04-19 23:53:00
8:53 PM,77.0,72.0,84,29.94,-9999.0,WSW,13.8,-,N/A,,Unknown,250,2013-04-20 00:53:00
9:53 PM,71.1,68.0,90,29.99,-9999.0,North,11.5,17.3,0.10,,Unknown,350,2013-04-20 01:53:00
10:53 PM,66.0,64.0,93,30.01,-9999.0,NNW,4.6,-,N/A,,Unknown,340,2013-04-20 02:53:00
11:53 PM,66.0,63.0,90,30.04,-9999.0,North,6.9,-,N/A,,Unknown,350,2013-04-20 03:53:00